owner,sensor,date,latitude,longitude,sea_surface_height_above_sea_level,qcFlag 
WAVCIS,ioos:station:WAVCIS:CSI16:1,2012-05-01T00:00:00Z,29.4012,-89.0355,8.742,11111222 
WAVCIS,ioos:station:WAVCIS:CSI16:1,2012-05-01T01:00:00Z,29.4012,-89.0355,8.736,11111222 
WAVCIS,ioos:station:WAVCIS:CSI16:1,2012-05-01T02:00:00Z,29.4012,-89.0355,8.715,11111222 
WAVCIS,ioos:station:WAVCIS:CSI16:1,2012-05-01T03:00:00Z,29.4012,-89.0355,8.696,11111222 
WAVCIS,ioos:station:WAVCIS:CSI16:1,2012-05-01T04:00:00Z,29.4012,-89.0355,8.651,11111222 
WAVCIS,ioos:station:WAVCIS:CSI16:1,2012-05-01T05:00:00Z,29.4012,-89.0355,8.637,11111222 
WAVCIS,ioos:station:WAVCIS:CSI16:1,2012-05-01T06:00:00Z,29.4012,-89.0355,8.631,11111222 
WAVCIS,ioos:station:WAVCIS:CSI16:1,2012-05-01T07:00:00Z,29.4012,-89.0355,8.645,11111222 
WAVCIS,ioos:station:WAVCIS:CSI16:1,2012-05-01T08:00:00Z,29.4012,-89.0355,8.642,11111222 
WAVCIS,ioos:station:WAVCIS:CSI16:1,2012-05-01T09:00:00Z,29.4012,-89.0355,8.652,11111222 
WAVCIS,ioos:station:WAVCIS:CSI16:1,2012-05-01T10:00:00Z,29.4012,-89.0355,8.678,11111222 
WAVCIS,ioos:station:WAVCIS:CSI16:1,2012-05-01T11:00:00Z,29.4012,-89.0355,8.705,11111222 
WAVCIS,ioos:station:WAVCIS:CSI16:1,2012-05-01T12:00:00Z,29.4012,-89.0355,8.75,11111222 
WAVCIS,ioos:station:WAVCIS:CSI16:1,2012-05-01T13:00:00Z,29.4012,-89.0355,8.765,11111222 
WAVCIS,ioos:station:WAVCIS:CSI16:1,2012-05-01T14:00:00Z,29.4012,-89.0355,8.771,11111222 
WAVCIS,ioos:station:WAVCIS:CSI16:1,2012-05-01T15:00:00Z,29.4012,-89.0355,8.769,11111222 
WAVCIS,ioos:station:WAVCIS:CSI16:1,2012-05-01T16:00:00Z,29.4012,-89.0355,8.761,11111222 
WAVCIS,ioos:station:WAVCIS:CSI16:1,2012-05-01T17:00:00Z,29.4012,-89.0355,8.746,11111222 
WAVCIS,ioos:station:WAVCIS:CSI16:1,2012-05-01T18:00:00Z,29.4012,-89.0355,8.723,11111222 
WAVCIS,ioos:station:WAVCIS:CSI16:1,2012-05-01T19:00:00Z,29.4012,-89.0355,8.728,11111222 
WAVCIS,ioos:station:WAVCIS:CSI16:1,2012-05-01T20:00:00Z,29.4012,-89.0355,8.724,11111222 
WAVCIS,ioos:station:WAVCIS:CSI16:1,2012-05-01T21:00:00Z,29.4012,-89.0355,8.71,11111222 
WAVCIS,ioos:station:WAVCIS:CSI16:1,2012-05-01T22:00:00Z,29.4012,-89.0355,8.723,11111222 
WAVCIS,ioos:station:WAVCIS:CSI16:1,2012-05-01T23:00:00Z,29.4012,-89.0355,8.735,11111222 
WAVCIS,ioos:station:WAVCIS:CSI16:1,2012-05-02T00:00:00Z,29.4012,-89.0355,8.748,11111222 
WAVCIS,ioos:station:WAVCIS:CSI16:1,2012-05-02T01:00:00Z,29.4012,-89.0355,8.77,11111222 
WAVCIS,ioos:station:WAVCIS:CSI16:1,2012-05-02T02:00:00Z,29.4012,-89.0355,8.78,11111222 
WAVCIS,ioos:station:WAVCIS:CSI16:1,2012-05-02T03:00:00Z,29.4012,-89.0355,8.779,11111222 
WAVCIS,ioos:station:WAVCIS:CSI16:1,2012-05-02T04:00:00Z,29.4012,-89.0355,8.768,11111222 
WAVCIS,ioos:station:WAVCIS:CSI16:1,2012-05-02T05:00:00Z,29.4012,-89.0355,8.763,11111222 
WAVCIS,ioos:station:WAVCIS:CSI16:1,2012-05-02T06:00:00Z,29.4012,-89.0355,8.757,11111222 
WAVCIS,ioos:station:WAVCIS:CSI16:1,2012-05-02T07:00:00Z,29.4012,-89.0355,8.761,11111222 
WAVCIS,ioos:station:WAVCIS:CSI16:1,2012-05-02T08:00:00Z,29.4012,-89.0355,8.791,11111222 
WAVCIS,ioos:station:WAVCIS:CSI16:1,2012-05-02T09:00:00Z,29.4012,-89.0355,8.804,11111222 
WAVCIS,ioos:station:WAVCIS:CSI16:1,2012-05-02T10:00:00Z,29.4012,-89.0355,8.802,11111222 
WAVCIS,ioos:station:WAVCIS:CSI16:1,2012-05-02T11:00:00Z,29.4012,-89.0355,8.836,11111222 
WAVCIS,ioos:station:WAVCIS:CSI16:1,2012-05-02T12:00:00Z,29.4012,-89.0355,8.859,11111222 
WAVCIS,ioos:station:WAVCIS:CSI16:1,2012-05-02T13:00:00Z,29.4012,-89.0355,8.908,11111222 
WAVCIS,ioos:station:WAVCIS:CSI16:1,2012-05-02T14:00:00Z,29.4012,-89.0355,8.891,11111222 
WAVCIS,ioos:station:WAVCIS:CSI16:1,2012-05-02T15:00:00Z,29.4012,-89.0355,8.895,11111222 
WAVCIS,ioos:station:WAVCIS:CSI16:1,2012-05-02T16:00:00Z,29.4012,-89.0355,8.885,11111222 
WAVCIS,ioos:station:WAVCIS:CSI16:1,2012-05-02T17:00:00Z,29.4012,-89.0355,8.839,11111222 
WAVCIS,ioos:station:WAVCIS:CSI16:1,2012-05-02T18:00:00Z,29.4012,-89.0355,8.807,11111222 
WAVCIS,ioos:station:WAVCIS:CSI16:1,2012-05-02T19:00:00Z,29.4012,-89.0355,8.796,11111222 
WAVCIS,ioos:station:WAVCIS:CSI16:1,2012-05-02T20:00:00Z,29.4012,-89.0355,8.798,11111222 
WAVCIS,ioos:station:WAVCIS:CSI16:1,2012-05-02T21:00:00Z,29.4012,-89.0355,8.775,11111222 
WAVCIS,ioos:station:WAVCIS:CSI16:1,2012-05-02T22:00:00Z,29.4012,-89.0355,8.797,11111222 
WAVCIS,ioos:station:WAVCIS:CSI16:1,2012-05-02T23:00:00Z,29.4012,-89.0355,8.792,11111222 
WAVCIS,ioos:station:WAVCIS:CSI16:1,2012-05-03T00:00:00Z,29.4012,-89.0355,8.817,11111222 
WAVCIS,ioos:station:WAVCIS:CSI16:1,2012-05-03T01:00:00Z,29.4012,-89.0355,8.823,11111222 
WAVCIS,ioos:station:WAVCIS:CSI16:1,2012-05-03T02:00:00Z,29.4012,-89.0355,8.853,11111222 
WAVCIS,ioos:station:WAVCIS:CSI16:1,2012-05-03T03:00:00Z,29.4012,-89.0355,8.878,11111222 
WAVCIS,ioos:station:WAVCIS:CSI16:1,2012-05-03T04:00:00Z,29.4012,-89.0355,8.887,11111222 
WAVCIS,ioos:station:WAVCIS:CSI16:1,2012-05-03T05:00:00Z,29.4012,-89.0355,8.844,11111222 
WAVCIS,ioos:station:WAVCIS:CSI16:1,2012-05-03T06:00:00Z,29.4012,-89.0355,8.896,11111222 
WAVCIS,ioos:station:WAVCIS:CSI16:1,2012-05-03T07:00:00Z,29.4012,-89.0355,8.907,11111222 
WAVCIS,ioos:station:WAVCIS:CSI16:1,2012-05-03T08:00:00Z,29.4012,-89.0355,8.921,11111222 
WAVCIS,ioos:station:WAVCIS:CSI16:1,2012-05-03T09:00:00Z,29.4012,-89.0355,8.954,11111222 
WAVCIS,ioos:station:WAVCIS:CSI16:1,2012-05-03T10:00:00Z,29.4012,-89.0355,8.949,11111222 
WAVCIS,ioos:station:WAVCIS:CSI16:1,2012-05-03T11:00:00Z,29.4012,-89.0355,8.951,11111222 
WAVCIS,ioos:station:WAVCIS:CSI16:1,2012-05-03T12:00:00Z,29.4012,-89.0355,8.963,11111222 
WAVCIS,ioos:station:WAVCIS:CSI16:1,2012-05-03T13:00:00Z,29.4012,-89.0355,8.968,11111222 
WAVCIS,ioos:station:WAVCIS:CSI16:1,2012-05-03T14:00:00Z,29.4012,-89.0355,8.959,11111222 
WAVCIS,ioos:station:WAVCIS:CSI16:1,2012-05-03T15:00:00Z,29.4012,-89.0355,8.932,11111222 
WAVCIS,ioos:station:WAVCIS:CSI16:1,2012-05-03T16:00:00Z,29.4012,-89.0355,8.898,11111222 
WAVCIS,ioos:station:WAVCIS:CSI16:1,2012-05-03T17:00:00Z,29.4012,-89.0355,8.839,11111222 
WAVCIS,ioos:station:WAVCIS:CSI16:1,2012-05-03T18:00:00Z,29.4012,-89.0355,8.773,11111222 
WAVCIS,ioos:station:WAVCIS:CSI16:1,2012-05-03T19:00:00Z,29.4012,-89.0355,8.729,11111222 
WAVCIS,ioos:station:WAVCIS:CSI16:1,2012-05-03T20:00:00Z,29.4012,-89.0355,8.7,11111222 
WAVCIS,ioos:station:WAVCIS:CSI16:1,2012-05-03T21:00:00Z,29.4012,-89.0355,8.681,11111222 
WAVCIS,ioos:station:WAVCIS:CSI16:1,2012-05-03T22:00:00Z,29.4012,-89.0355,8.667,11111222 
WAVCIS,ioos:station:WAVCIS:CSI16:1,2012-05-03T23:00:00Z,29.4012,-89.0355,8.673,11111222 
WAVCIS,ioos:station:WAVCIS:CSI16:1,2012-05-04T00:00:00Z,29.4012,-89.0355,8.699,11111222 
WAVCIS,ioos:station:WAVCIS:CSI16:1,2012-05-04T01:00:00Z,29.4012,-89.0355,8.717,11111222 
WAVCIS,ioos:station:WAVCIS:CSI16:1,2012-05-04T02:00:00Z,29.4012,-89.0355,8.766,11111222 
WAVCIS,ioos:station:WAVCIS:CSI16:1,2012-05-04T03:00:00Z,29.4012,-89.0355,8.801,11111222 
WAVCIS,ioos:station:WAVCIS:CSI16:1,2012-05-04T04:00:00Z,29.4012,-89.0355,8.846,11111222 
WAVCIS,ioos:station:WAVCIS:CSI16:1,2012-05-04T05:00:00Z,29.4012,-89.0355,8.87,11111222 
WAVCIS,ioos:station:WAVCIS:CSI16:1,2012-05-04T06:00:00Z,29.4012,-89.0355,8.886,11111222 
WAVCIS,ioos:station:WAVCIS:CSI16:1,2012-05-04T07:00:00Z,29.4012,-89.0355,8.902,11111222 
WAVCIS,ioos:station:WAVCIS:CSI16:1,2012-05-04T08:00:00Z,29.4012,-89.0355,8.927,11111222 
WAVCIS,ioos:station:WAVCIS:CSI16:1,2012-05-04T09:00:00Z,29.4012,-89.0355,8.953,11111222 
WAVCIS,ioos:station:WAVCIS:CSI16:1,2012-05-04T10:00:00Z,29.4012,-89.0355,8.981,11111222 
WAVCIS,ioos:station:WAVCIS:CSI16:1,2012-05-04T11:00:00Z,29.4012,-89.0355,9.008,11111222 
WAVCIS,ioos:station:WAVCIS:CSI16:1,2012-05-04T12:00:00Z,29.4012,-89.0355,9.025,11111222 
WAVCIS,ioos:station:WAVCIS:CSI16:1,2012-05-04T13:00:00Z,29.4012,-89.0355,9.032,11111222 
WAVCIS,ioos:station:WAVCIS:CSI16:1,2012-05-04T14:00:00Z,29.4012,-89.0355,9.036,11111222 
WAVCIS,ioos:station:WAVCIS:CSI16:1,2012-05-04T15:00:00Z,29.4012,-89.0355,9.004,11111222 
WAVCIS,ioos:station:WAVCIS:CSI16:1,2012-05-04T16:00:00Z,29.4012,-89.0355,8.97,11111222 
WAVCIS,ioos:station:WAVCIS:CSI16:1,2012-05-04T17:00:00Z,29.4012,-89.0355,8.909,11111222 
WAVCIS,ioos:station:WAVCIS:CSI16:1,2012-05-04T18:00:00Z,29.4012,-89.0355,8.827,11111222 
WAVCIS,ioos:station:WAVCIS:CSI16:1,2012-05-04T19:00:00Z,29.4012,-89.0355,8.741,11111222 
WAVCIS,ioos:station:WAVCIS:CSI16:1,2012-05-04T20:00:00Z,29.4012,-89.0355,8.677,11111222 
WAVCIS,ioos:station:WAVCIS:CSI16:1,2012-05-04T21:00:00Z,29.4012,-89.0355,8.627,11111222 
WAVCIS,ioos:station:WAVCIS:CSI16:1,2012-05-04T22:00:00Z,29.4012,-89.0355,8.617,11111222 
WAVCIS,ioos:station:WAVCIS:CSI16:1,2012-05-04T23:00:00Z,29.4012,-89.0355,8.6,11111222 
WAVCIS,ioos:station:WAVCIS:CSI16:1,2012-05-05T00:00:00Z,29.4012,-89.0355,8.601,11111222 
WAVCIS,ioos:station:WAVCIS:CSI16:1,2012-05-05T01:00:00Z,29.4012,-89.0355,8.625,11111222 
WAVCIS,ioos:station:WAVCIS:CSI16:1,2012-05-05T02:00:00Z,29.4012,-89.0355,8.678,11111222 
WAVCIS,ioos:station:WAVCIS:CSI16:1,2012-05-05T03:00:00Z,29.4012,-89.0355,8.726,11111222 
WAVCIS,ioos:station:WAVCIS:CSI16:1,2012-05-05T04:00:00Z,29.4012,-89.0355,8.764,11111222 
WAVCIS,ioos:station:WAVCIS:CSI16:1,2012-05-05T05:00:00Z,29.4012,-89.0355,8.815,11111222 
WAVCIS,ioos:station:WAVCIS:CSI16:1,2012-05-05T06:00:00Z,29.4012,-89.0355,8.859,11111222 
WAVCIS,ioos:station:WAVCIS:CSI16:1,2012-05-05T07:00:00Z,29.4012,-89.0355,8.882,11111222 
WAVCIS,ioos:station:WAVCIS:CSI16:1,2012-05-05T08:00:00Z,29.4012,-89.0355,8.909,11111222 
WAVCIS,ioos:station:WAVCIS:CSI16:1,2012-05-05T09:00:00Z,29.4012,-89.0355,8.947,11111222 
WAVCIS,ioos:station:WAVCIS:CSI16:1,2012-05-05T10:00:00Z,29.4012,-89.0355,8.998,11111222 
WAVCIS,ioos:station:WAVCIS:CSI16:1,2012-05-05T11:00:00Z,29.4012,-89.0355,9.036,11111222 
WAVCIS,ioos:station:WAVCIS:CSI16:1,2012-05-05T12:00:00Z,29.4012,-89.0355,9.055,11111222 
WAVCIS,ioos:station:WAVCIS:CSI16:1,2012-05-05T13:00:00Z,29.4012,-89.0355,9.064,11111222 
WAVCIS,ioos:station:WAVCIS:CSI16:1,2012-05-05T14:00:00Z,29.4012,-89.0355,9.059,11111222 
WAVCIS,ioos:station:WAVCIS:CSI16:1,2012-05-05T15:00:00Z,29.4012,-89.0355,9.041,11111222 
WAVCIS,ioos:station:WAVCIS:CSI16:1,2012-05-05T16:00:00Z,29.4012,-89.0355,9.0,11111222 
WAVCIS,ioos:station:WAVCIS:CSI16:1,2012-05-05T17:00:00Z,29.4012,-89.0355,8.928,11111222 
WAVCIS,ioos:station:WAVCIS:CSI16:1,2012-05-05T18:00:00Z,29.4012,-89.0355,8.838,11111222 
WAVCIS,ioos:station:WAVCIS:CSI16:1,2012-05-05T19:00:00Z,29.4012,-89.0355,8.75,11111222 
WAVCIS,ioos:station:WAVCIS:CSI16:1,2012-05-05T20:00:00Z,29.4012,-89.0355,8.648,11111222 
WAVCIS,ioos:station:WAVCIS:CSI16:1,2012-05-05T21:00:00Z,29.4012,-89.0355,8.566,11111222 
WAVCIS,ioos:station:WAVCIS:CSI16:1,2012-05-05T22:00:00Z,29.4012,-89.0355,8.537,11111222 
WAVCIS,ioos:station:WAVCIS:CSI16:1,2012-05-05T23:00:00Z,29.4012,-89.0355,8.526,11111222 
WAVCIS,ioos:station:WAVCIS:CSI16:1,2012-05-06T00:00:00Z,29.4012,-89.0355,8.505,11111222 
WAVCIS,ioos:station:WAVCIS:CSI16:1,2012-05-06T01:00:00Z,29.4012,-89.0355,8.513,11111222 
WAVCIS,ioos:station:WAVCIS:CSI16:1,2012-05-06T02:00:00Z,29.4012,-89.0355,8.538,11111222 
WAVCIS,ioos:station:WAVCIS:CSI16:1,2012-05-06T03:00:00Z,29.4012,-89.0355,8.581,11111222 
WAVCIS,ioos:station:WAVCIS:CSI16:1,2012-05-06T04:00:00Z,29.4012,-89.0355,8.635,11111222 
WAVCIS,ioos:station:WAVCIS:CSI16:1,2012-05-06T05:00:00Z,29.4012,-89.0355,8.695,11111222 
WAVCIS,ioos:station:WAVCIS:CSI16:1,2012-05-06T06:00:00Z,29.4012,-89.0355,8.748,11111222 
WAVCIS,ioos:station:WAVCIS:CSI16:1,2012-05-06T07:00:00Z,29.4012,-89.0355,8.815,11111222 
WAVCIS,ioos:station:WAVCIS:CSI16:1,2012-05-06T08:00:00Z,29.4012,-89.0355,8.878,11111222 
WAVCIS,ioos:station:WAVCIS:CSI16:1,2012-05-06T09:00:00Z,29.4012,-89.0355,8.927,11111222 
WAVCIS,ioos:station:WAVCIS:CSI16:1,2012-05-06T10:00:00Z,29.4012,-89.0355,8.981,11111222 
WAVCIS,ioos:station:WAVCIS:CSI16:1,2012-05-06T11:00:00Z,29.4012,-89.0355,9.04,11111222 
WAVCIS,ioos:station:WAVCIS:CSI16:1,2012-05-06T12:00:00Z,29.4012,-89.0355,9.096,11111222 
WAVCIS,ioos:station:WAVCIS:CSI16:1,2012-05-06T13:00:00Z,29.4012,-89.0355,9.119,11111222 
WAVCIS,ioos:station:WAVCIS:CSI16:1,2012-05-06T14:00:00Z,29.4012,-89.0355,9.127,11111222 
WAVCIS,ioos:station:WAVCIS:CSI16:1,2012-05-06T15:00:00Z,29.4012,-89.0355,9.116,11111222 
WAVCIS,ioos:station:WAVCIS:CSI16:1,2012-05-06T16:00:00Z,29.4012,-89.0355,9.081,11111222 
WAVCIS,ioos:station:WAVCIS:CSI16:1,2012-05-06T17:00:00Z,29.4012,-89.0355,9.028,11111222 
WAVCIS,ioos:station:WAVCIS:CSI16:1,2012-05-06T18:00:00Z,29.4012,-89.0355,8.937,11111222 
WAVCIS,ioos:station:WAVCIS:CSI16:1,2012-05-06T19:00:00Z,29.4012,-89.0355,8.842,11111222 
WAVCIS,ioos:station:WAVCIS:CSI16:1,2012-05-06T20:00:00Z,29.4012,-89.0355,8.714,11111222 
WAVCIS,ioos:station:WAVCIS:CSI16:1,2012-05-06T21:00:00Z,29.4012,-89.0355,8.6,11111222 
WAVCIS,ioos:station:WAVCIS:CSI16:1,2012-05-06T22:00:00Z,29.4012,-89.0355,8.52,11111222 
WAVCIS,ioos:station:WAVCIS:CSI16:1,2012-05-06T23:00:00Z,29.4012,-89.0355,8.475,11111222 
WAVCIS,ioos:station:WAVCIS:CSI16:1,2012-05-07T00:00:00Z,29.4012,-89.0355,8.465,11111222 
WAVCIS,ioos:station:WAVCIS:CSI16:1,2012-05-07T01:00:00Z,29.4012,-89.0355,8.46,11111222 
WAVCIS,ioos:station:WAVCIS:CSI16:1,2012-05-07T02:00:00Z,29.4012,-89.0355,8.447,11111222 
WAVCIS,ioos:station:WAVCIS:CSI16:1,2012-05-07T03:00:00Z,29.4012,-89.0355,8.466,11111222 
WAVCIS,ioos:station:WAVCIS:CSI16:1,2012-05-07T04:00:00Z,29.4012,-89.0355,8.522,11111222 
WAVCIS,ioos:station:WAVCIS:CSI16:1,2012-05-07T05:00:00Z,29.4012,-89.0355,8.639,11111222 
WAVCIS,ioos:station:WAVCIS:CSI16:1,2012-05-07T06:00:00Z,29.4012,-89.0355,8.681,11111222 
WAVCIS,ioos:station:WAVCIS:CSI16:1,2012-05-07T07:00:00Z,29.4012,-89.0355,8.734,11111222 
WAVCIS,ioos:station:WAVCIS:CSI16:1,2012-05-07T08:00:00Z,29.4012,-89.0355,8.788,11111222 
WAVCIS,ioos:station:WAVCIS:CSI16:1,2012-05-07T09:00:00Z,29.4012,-89.0355,8.863,11111222 
WAVCIS,ioos:station:WAVCIS:CSI16:1,2012-05-07T10:00:00Z,29.4012,-89.0355,8.921,11111222 
WAVCIS,ioos:station:WAVCIS:CSI16:1,2012-05-07T11:00:00Z,29.4012,-89.0355,8.984,11111222 
WAVCIS,ioos:station:WAVCIS:CSI16:1,2012-05-07T12:00:00Z,29.4012,-89.0355,9.047,11111222 
WAVCIS,ioos:station:WAVCIS:CSI16:1,2012-05-07T13:00:00Z,29.4012,-89.0355,9.09,11111222 
WAVCIS,ioos:station:WAVCIS:CSI16:1,2012-05-07T14:00:00Z,29.4012,-89.0355,9.115,11111222 
WAVCIS,ioos:station:WAVCIS:CSI16:1,2012-05-07T15:00:00Z,29.4012,-89.0355,9.117,11111222 
WAVCIS,ioos:station:WAVCIS:CSI16:1,2012-05-07T16:00:00Z,29.4012,-89.0355,9.112,11111222 
WAVCIS,ioos:station:WAVCIS:CSI16:1,2012-05-07T17:00:00Z,29.4012,-89.0355,9.077,11111222 
WAVCIS,ioos:station:WAVCIS:CSI16:1,2012-05-07T18:00:00Z,29.4012,-89.0355,9.023,11111222 
WAVCIS,ioos:station:WAVCIS:CSI16:1,2012-05-07T19:00:00Z,29.4012,-89.0355,8.933,11111222 
WAVCIS,ioos:station:WAVCIS:CSI16:1,2012-05-07T20:00:00Z,29.4012,-89.0355,8.807,11111222 
WAVCIS,ioos:station:WAVCIS:CSI16:1,2012-05-07T21:00:00Z,29.4012,-89.0355,8.706,11111222 
WAVCIS,ioos:station:WAVCIS:CSI16:1,2012-05-07T22:00:00Z,29.4012,-89.0355,8.616,11111222 
WAVCIS,ioos:station:WAVCIS:CSI16:1,2012-05-07T23:00:00Z,29.4012,-89.0355,8.537,11111222 
WAVCIS,ioos:station:WAVCIS:CSI16:1,2012-05-08T00:00:00Z,29.4012,-89.0355,8.495,11111222 
WAVCIS,ioos:station:WAVCIS:CSI16:1,2012-05-08T01:00:00Z,29.4012,-89.0355,8.501,11111222 
WAVCIS,ioos:station:WAVCIS:CSI16:1,2012-05-08T02:00:00Z,29.4012,-89.0355,8.471,11111222 
WAVCIS,ioos:station:WAVCIS:CSI16:1,2012-05-08T03:00:00Z,29.4012,-89.0355,8.497,11111222 
WAVCIS,ioos:station:WAVCIS:CSI16:1,2012-05-08T04:00:00Z,29.4012,-89.0355,8.528,11111222 
WAVCIS,ioos:station:WAVCIS:CSI16:1,2012-05-08T05:00:00Z,29.4012,-89.0355,8.565,11111222 
WAVCIS,ioos:station:WAVCIS:CSI16:1,2012-05-08T06:00:00Z,29.4012,-89.0355,8.615,11111222 
WAVCIS,ioos:station:WAVCIS:CSI16:1,2012-05-08T07:00:00Z,29.4012,-89.0355,8.682,11111222 
WAVCIS,ioos:station:WAVCIS:CSI16:1,2012-05-08T08:00:00Z,29.4012,-89.0355,8.763,11111222 
WAVCIS,ioos:station:WAVCIS:CSI16:1,2012-05-08T09:00:00Z,29.4012,-89.0355,8.831,11111222 
WAVCIS,ioos:station:WAVCIS:CSI16:1,2012-05-08T10:00:00Z,29.4012,-89.0355,8.885,11111222 
WAVCIS,ioos:station:WAVCIS:CSI16:1,2012-05-08T11:00:00Z,29.4012,-89.0355,8.934,11111222 
WAVCIS,ioos:station:WAVCIS:CSI16:1,2012-05-08T12:00:00Z,29.4012,-89.0355,8.997,11111222 
WAVCIS,ioos:station:WAVCIS:CSI16:1,2012-05-08T13:00:00Z,29.4012,-89.0355,9.051,11111222 
WAVCIS,ioos:station:WAVCIS:CSI16:1,2012-05-08T14:00:00Z,29.4012,-89.0355,9.101,11111222 
WAVCIS,ioos:station:WAVCIS:CSI16:1,2012-05-08T15:00:00Z,29.4012,-89.0355,9.125,11111222 
WAVCIS,ioos:station:WAVCIS:CSI16:1,2012-05-08T16:00:00Z,29.4012,-89.0355,9.12,11111222 
WAVCIS,ioos:station:WAVCIS:CSI16:1,2012-05-08T17:00:00Z,29.4012,-89.0355,9.089,11111222 
WAVCIS,ioos:station:WAVCIS:CSI16:1,2012-05-08T18:00:00Z,29.4012,-89.0355,9.048,11111222 
WAVCIS,ioos:station:WAVCIS:CSI16:1,2012-05-08T19:00:00Z,29.4012,-89.0355,8.988,11111222 
WAVCIS,ioos:station:WAVCIS:CSI16:1,2012-05-08T20:00:00Z,29.4012,-89.0355,8.886,11111222 
WAVCIS,ioos:station:WAVCIS:CSI16:1,2012-05-08T21:00:00Z,29.4012,-89.0355,8.775,11111222 
WAVCIS,ioos:station:WAVCIS:CSI16:1,2012-05-08T22:00:00Z,29.4012,-89.0355,8.655,11111222 
WAVCIS,ioos:station:WAVCIS:CSI16:1,2012-05-08T23:00:00Z,29.4012,-89.0355,8.556,11111222 
WAVCIS,ioos:station:WAVCIS:CSI16:1,2012-05-09T00:00:00Z,29.4012,-89.0355,8.491,11111222 
WAVCIS,ioos:station:WAVCIS:CSI16:1,2012-05-09T01:00:00Z,29.4012,-89.0355,8.461,11111222 
WAVCIS,ioos:station:WAVCIS:CSI16:1,2012-05-09T02:00:00Z,29.4012,-89.0355,8.428,11111222 
WAVCIS,ioos:station:WAVCIS:CSI16:1,2012-05-09T03:00:00Z,29.4012,-89.0355,8.435,11111222 
WAVCIS,ioos:station:WAVCIS:CSI16:1,2012-05-09T04:00:00Z,29.4012,-89.0355,8.445,11111222 
WAVCIS,ioos:station:WAVCIS:CSI16:1,2012-05-09T05:00:00Z,29.4012,-89.0355,8.468,11111222 
WAVCIS,ioos:station:WAVCIS:CSI16:1,2012-05-09T06:00:00Z,29.4012,-89.0355,8.513,11111222 
WAVCIS,ioos:station:WAVCIS:CSI16:1,2012-05-09T07:00:00Z,29.4012,-89.0355,8.565,11111222 
WAVCIS,ioos:station:WAVCIS:CSI16:1,2012-05-09T08:00:00Z,29.4012,-89.0355,8.642,11111222 
WAVCIS,ioos:station:WAVCIS:CSI16:1,2012-05-09T09:00:00Z,29.4012,-89.0355,8.713,11111222 
WAVCIS,ioos:station:WAVCIS:CSI16:1,2012-05-09T10:00:00Z,29.4012,-89.0355,8.78,11111222 
WAVCIS,ioos:station:WAVCIS:CSI16:1,2012-05-09T11:00:00Z,29.4012,-89.0355,8.842,11111222 
WAVCIS,ioos:station:WAVCIS:CSI16:1,2012-05-09T12:00:00Z,29.4012,-89.0355,8.9,11111222 
WAVCIS,ioos:station:WAVCIS:CSI16:1,2012-05-09T13:00:00Z,29.4012,-89.0355,8.961,11111222 
WAVCIS,ioos:station:WAVCIS:CSI16:1,2012-05-09T14:00:00Z,29.4012,-89.0355,9.02,11111222 
WAVCIS,ioos:station:WAVCIS:CSI16:1,2012-05-09T15:00:00Z,29.4012,-89.0355,9.065,11111222 
WAVCIS,ioos:station:WAVCIS:CSI16:1,2012-05-09T16:00:00Z,29.4012,-89.0355,9.081,11111222 
WAVCIS,ioos:station:WAVCIS:CSI16:1,2012-05-09T17:00:00Z,29.4012,-89.0355,9.064,11111222 
WAVCIS,ioos:station:WAVCIS:CSI16:1,2012-05-09T18:00:00Z,29.4012,-89.0355,9.051,11111222 
WAVCIS,ioos:station:WAVCIS:CSI16:1,2012-05-09T19:00:00Z,29.4012,-89.0355,9.009,11111222 
WAVCIS,ioos:station:WAVCIS:CSI16:1,2012-05-09T20:00:00Z,29.4012,-89.0355,8.941,11111222 
WAVCIS,ioos:station:WAVCIS:CSI16:1,2012-05-09T21:00:00Z,29.4012,-89.0355,8.87,11111222 
WAVCIS,ioos:station:WAVCIS:CSI16:1,2012-05-09T22:00:00Z,29.4012,-89.0355,8.735,11111222 
WAVCIS,ioos:station:WAVCIS:CSI16:1,2012-05-09T23:00:00Z,29.4012,-89.0355,8.637,11111222 
WAVCIS,ioos:station:WAVCIS:CSI16:1,2012-05-10T00:00:00Z,29.4012,-89.0355,8.56,11111222 
WAVCIS,ioos:station:WAVCIS:CSI16:1,2012-05-10T01:00:00Z,29.4012,-89.0355,8.511,11111222 
WAVCIS,ioos:station:WAVCIS:CSI16:1,2012-05-10T02:00:00Z,29.4012,-89.0355,8.5,11111222 
WAVCIS,ioos:station:WAVCIS:CSI16:1,2012-05-10T03:00:00Z,29.4012,-89.0355,8.519,11111222 
WAVCIS,ioos:station:WAVCIS:CSI16:1,2012-05-10T04:00:00Z,29.4012,-89.0355,8.514,11111222 
WAVCIS,ioos:station:WAVCIS:CSI16:1,2012-05-10T05:00:00Z,29.4012,-89.0355,8.527,11111222 
WAVCIS,ioos:station:WAVCIS:CSI16:1,2012-05-10T06:00:00Z,29.4012,-89.0355,8.545,11111222 
WAVCIS,ioos:station:WAVCIS:CSI16:1,2012-05-10T07:00:00Z,29.4012,-89.0355,8.592,11111222 
WAVCIS,ioos:station:WAVCIS:CSI16:1,2012-05-10T08:00:00Z,29.4012,-89.0355,8.654,11111222 
WAVCIS,ioos:station:WAVCIS:CSI16:1,2012-05-10T09:00:00Z,29.4012,-89.0355,8.701,11111222 
WAVCIS,ioos:station:WAVCIS:CSI16:1,2012-05-10T10:00:00Z,29.4012,-89.0355,8.753,11111222 
WAVCIS,ioos:station:WAVCIS:CSI16:1,2012-05-10T11:00:00Z,29.4012,-89.0355,8.815,11111222 
WAVCIS,ioos:station:WAVCIS:CSI16:1,2012-05-10T12:00:00Z,29.4012,-89.0355,8.869,11111222 
WAVCIS,ioos:station:WAVCIS:CSI16:1,2012-05-10T13:00:00Z,29.4012,-89.0355,8.94,11111222 
WAVCIS,ioos:station:WAVCIS:CSI16:1,2012-05-10T14:00:00Z,29.4012,-89.0355,8.992,11111222 
WAVCIS,ioos:station:WAVCIS:CSI16:1,2012-05-10T15:00:00Z,29.4012,-89.0355,9.03,11111222 
WAVCIS,ioos:station:WAVCIS:CSI16:1,2012-05-10T16:00:00Z,29.4012,-89.0355,9.064,11111222 
WAVCIS,ioos:station:WAVCIS:CSI16:1,2012-05-10T17:00:00Z,29.4012,-89.0355,9.079,11111222 
WAVCIS,ioos:station:WAVCIS:CSI16:1,2012-05-10T18:00:00Z,29.4012,-89.0355,9.07,11111222 
WAVCIS,ioos:station:WAVCIS:CSI16:1,2012-05-10T19:00:00Z,29.4012,-89.0355,9.048,11111222 
WAVCIS,ioos:station:WAVCIS:CSI16:1,2012-05-10T20:00:00Z,29.4012,-89.0355,8.991,11111222 
WAVCIS,ioos:station:WAVCIS:CSI16:1,2012-05-10T21:00:00Z,29.4012,-89.0355,8.939,11111222 
WAVCIS,ioos:station:WAVCIS:CSI16:1,2012-05-10T22:00:00Z,29.4012,-89.0355,8.857,11111222 
WAVCIS,ioos:station:WAVCIS:CSI16:1,2012-05-10T23:00:00Z,29.4012,-89.0355,8.785,11111222 
WAVCIS,ioos:station:WAVCIS:CSI16:1,2012-05-11T00:00:00Z,29.4012,-89.0355,8.719,11111222 
WAVCIS,ioos:station:WAVCIS:CSI16:1,2012-05-11T01:00:00Z,29.4012,-89.0355,8.662,11111222 
WAVCIS,ioos:station:WAVCIS:CSI16:1,2012-05-11T02:00:00Z,29.4012,-89.0355,8.625,11111222 
WAVCIS,ioos:station:WAVCIS:CSI16:1,2012-05-11T03:00:00Z,29.4012,-89.0355,8.587,11111222 
WAVCIS,ioos:station:WAVCIS:CSI16:1,2012-05-11T04:00:00Z,29.4012,-89.0355,8.565,11111222 
WAVCIS,ioos:station:WAVCIS:CSI16:1,2012-05-11T05:00:00Z,29.4012,-89.0355,8.556,11111222 
WAVCIS,ioos:station:WAVCIS:CSI16:1,2012-05-11T06:00:00Z,29.4012,-89.0355,8.562,11111222 
WAVCIS,ioos:station:WAVCIS:CSI16:1,2012-05-11T07:00:00Z,29.4012,-89.0355,8.576,11111222 
WAVCIS,ioos:station:WAVCIS:CSI16:1,2012-05-11T08:00:00Z,29.4012,-89.0355,8.622,11111222 
WAVCIS,ioos:station:WAVCIS:CSI16:1,2012-05-11T09:00:00Z,29.4012,-89.0355,8.663,11111222 
WAVCIS,ioos:station:WAVCIS:CSI16:1,2012-05-11T10:00:00Z,29.4012,-89.0355,8.712,11111222 
WAVCIS,ioos:station:WAVCIS:CSI16:1,2012-05-11T11:00:00Z,29.4012,-89.0355,8.761,11111222 
WAVCIS,ioos:station:WAVCIS:CSI16:1,2012-05-11T12:00:00Z,29.4012,-89.0355,8.821,11111222 
WAVCIS,ioos:station:WAVCIS:CSI16:1,2012-05-11T13:00:00Z,29.4012,-89.0355,8.884,11111222 
WAVCIS,ioos:station:WAVCIS:CSI16:1,2012-05-11T14:00:00Z,29.4012,-89.0355,8.949,11111222 
WAVCIS,ioos:station:WAVCIS:CSI16:1,2012-05-11T15:00:00Z,29.4012,-89.0355,9.001,11111222 
WAVCIS,ioos:station:WAVCIS:CSI16:1,2012-05-11T16:00:00Z,29.4012,-89.0355,9.039,11111222 
WAVCIS,ioos:station:WAVCIS:CSI16:1,2012-05-11T17:00:00Z,29.4012,-89.0355,9.041,11111222 
WAVCIS,ioos:station:WAVCIS:CSI16:1,2012-05-11T18:00:00Z,29.4012,-89.0355,9.033,11111222 
WAVCIS,ioos:station:WAVCIS:CSI16:1,2012-05-11T19:00:00Z,29.4012,-89.0355,9.008,11111222 
WAVCIS,ioos:station:WAVCIS:CSI16:1,2012-05-11T20:00:00Z,29.4012,-89.0355,8.994,11111222 
WAVCIS,ioos:station:WAVCIS:CSI16:1,2012-05-11T21:00:00Z,29.4012,-89.0355,8.962,11111222 
WAVCIS,ioos:station:WAVCIS:CSI16:1,2012-05-11T22:00:00Z,29.4012,-89.0355,8.934,11111222 
WAVCIS,ioos:station:WAVCIS:CSI16:1,2012-05-11T23:00:00Z,29.4012,-89.0355,8.848,11111222 
WAVCIS,ioos:station:WAVCIS:CSI16:1,2012-05-12T00:00:00Z,29.4012,-89.0355,8.714,11111222 
WAVCIS,ioos:station:WAVCIS:CSI16:1,2012-05-12T01:00:00Z,29.4012,-89.0355,8.735,11111222 
WAVCIS,ioos:station:WAVCIS:CSI16:1,2012-05-12T02:00:00Z,29.4012,-89.0355,8.786,11111222 
WAVCIS,ioos:station:WAVCIS:CSI16:1,2012-05-12T03:00:00Z,29.4012,-89.0355,8.711,11111222 
WAVCIS,ioos:station:WAVCIS:CSI16:1,2012-05-12T04:00:00Z,29.4012,-89.0355,8.719,11111222 